Weather History for Mobridge, SD

Change the Weather History Date:

Tuesday, September 10, 2013

  Actual Average Record
Temperature  
Mean Temperature 69 °F 63 °F  
Max Temperature 82 °F 77 °F 103 °F (1931)
Min Temperature 56 °F 50 °F 33 °F (1943)
Degree Days  
Heating Degree Days 0 4  
Month to date heating degree days 0 33  
Since 1 July heating degree days 13 66  
Cooling Degree Days 4 3  
Month to date cooling degree days 87 37  
Year to date cooling degree days 671 618  
Growing Degree Days 18 (Base 50)    
Moisture  
Dew Point 56 °F    
Average Humidity 67    
Maximum Humidity 93    
Minimum Humidity 40    
Precipitation  
Precipitation 0.00 in 0.06 in 1.14 in (1979)
Month to date precipitation 2.73 0.47  
Year to date precipitation 16.55 14.38  
Sea Level Pressure  
Sea Level Pressure 29.95 in    
Wind  
Wind Speed 4 mph (WNW)    
Max Wind Speed 12 mph    
Max Gust Speed 14 mph    
Visibility 10 miles    
Events      
T = Trace of Precipitation, MM = Missing Value Source: NWS Daily Summary

Daily Weather History Graph

Daily Weather History Graph

Search for Another Location

Airport:

Trip Planner

Search our weather history database for the weather conditions in past years. The results will help you decide how hot, cold, wet, or windy it might be!

Date:

Astronomy

Sep. 10, 2013 Rise Set
Actual Time 7:14 AM CDT 8:01 PM CDT
Civil Twilight 6:44 AM CDT 8:31 PM CDT
Nautical Twilight 6:08 AM CDT 9:07 PM CDT
Astronomical Twilight 5:31 AM CDT 9:44 PM CDT
Moon 12:59 PM CDT (9/10) 10:48 PM CDT (9/10)
Length of Visible Light 13h 47m
Length of Day
12h 47m
Waxing Crescent, 28% of the Moon is Illuminated
Sep 10
Waxing Crescent
Sep 12
First Quarter
Sep 19
Full
Sep 26
Last Quarter
Oct 4
New

Hourly Weather History & Observations

Time (CDT) Temp. Heat Index Dew Point Humidity Pressure Visibility Wind Dir Wind Speed Gust Speed Precip Events Conditions
1:52 AM 60.1 °F - 55.9 °F 86% 29.85 in 10.0 mi WNW 4.6 mph - N/A   Clear
2:52 AM 61.0 °F - 55.0 °F 81% 29.86 in 10.0 mi Calm Calm - N/A   Clear
3:52 AM 57.9 °F - 55.0 °F 90% 29.88 in 10.0 mi Calm Calm - N/A   Clear
4:52 AM 57.0 °F - 54.0 °F 89% 29.89 in 10.0 mi ENE 3.5 mph - N/A   Clear
5:52 AM 55.9 °F - 54.0 °F 93% 29.91 in 10.0 mi Calm Calm - N/A   Clear
6:52 AM 59.0 °F - 55.9 °F 90% 29.91 in 10.0 mi NW 4.6 mph - N/A   Clear
7:52 AM 59.0 °F - 55.9 °F 90% 29.93 in 10.0 mi WNW 8.1 mph - N/A   Clear
8:52 AM 60.1 °F - 55.9 °F 86% 29.94 in 10.0 mi NW 6.9 mph - N/A   Clear
9:52 AM 63.0 °F - 57.0 °F 81% 29.95 in 10.0 mi NW 10.4 mph - N/A   Clear
10:52 AM 66.9 °F - 57.9 °F 73% 29.98 in 10.0 mi Calm Calm - N/A   Clear
11:52 AM 73.0 °F - 55.9 °F 55% 29.98 in 10.0 mi West 8.1 mph - N/A   Clear
12:52 PM 75.0 °F - 55.0 °F 50% 29.99 in 10.0 mi WNW 8.1 mph - N/A   Clear
1:52 PM 75.9 °F - 55.0 °F 48% 29.98 in 10.0 mi Variable 3.5 mph - N/A   Clear
2:52 PM 78.1 °F - 55.0 °F 45% 29.97 in 10.0 mi West 6.9 mph - N/A   Clear
3:52 PM 80.1 °F 80.1 °F 55.0 °F 42% 29.96 in 10.0 mi WNW 8.1 mph - N/A   Clear
4:52 PM 82.0 °F 81.4 °F 55.0 °F 39% 29.96 in 10.0 mi Variable 6.9 mph - N/A   Clear
5:52 PM 80.1 °F 80.1 °F 55.0 °F 42% 29.96 in 10.0 mi WNW 6.9 mph - N/A   Clear
6:52 PM 75.9 °F - 57.0 °F 52% 29.97 in 10.0 mi West 4.6 mph - N/A   Clear
7:52 PM 73.0 °F - 60.1 °F 64% 29.97 in 10.0 mi Calm Calm - N/A   Clear
8:52 PM 66.9 °F - 61.0 °F 81% 29.99 in 10.0 mi Calm Calm - N/A   Clear
9:52 PM 64.9 °F - 59.0 °F 81% 30.01 in 10.0 mi Calm Calm - N/A   Clear
10:52 PM 66.0 °F - 57.9 °F 75% 30.00 in 10.0 mi SSE 3.5 mph - N/A   Clear
11:52 PM 62.1 °F - 57.0 °F 84% 30.01 in 10.0 mi West 3.5 mph - N/A   Clear